Hermosillo, México

9:49 PM MST en Septiembre 19, 2018 (GMT -0700)
Gen Ignacio Pesqueira Garcia

Tiempo Historia de MMHO - Septiembre, 2018

Change the Weather History Date:

Viernes, Septiembre 14, 2018

  Actual Average Record
Temperature  
Temperatura media 95 ° F -  
Temperatura máxima 110 ° F 94 ° F 110 ° F (2018)
Temperatura mínima 80 ° F 70 ° F 68 ° F (2005)
Cooling Degree Days 30    
Growing Degree Days 45 (Base 50)    
Moisture  
Punto de rocío 72 ° F    
Average Humidity 53    
Maximum Humidity 89    
Minimum Humidity 18    
Precipitación  
Precipitación 0.00 pul - - ()
Presión al nivel del mar  
Presión al nivel del mar 29.74 pul    
Viento  
Velocidad del viento 4 mph ()    
Velocidad máxima del viento 17 mph    
Max Gust Speed -    
Visibilidad 9.7 Millas    
Eventos      
Averages and records for this station are not official NWS values.
T = Trace of Precipitation, MM = Missing Value Source: Averaged Metar Reports

Daily Weather History Graph

Daily Weather History Graph

Search for Another Location

Airport or City:

Astronomía

Sep. 14, 2018 Salida Puesta
Hora real 7:08 AM MDT 7:30 PM MDT
Crepúsculo civil 6:44 AM MDT 7:54 PM MDT
Crepúsculo náutico 6:17 AM MDT 8:21 PM MDT
Crepúsculo astronómico 5:48 AM MDT 8:49 PM MDT
Luna 12:05 PM MDT (9/14) 11:15 PM MDT (9/14)
Horas de luz 13h 09m
Horas de luz
12h 21m
Creciente, 29% of the Moon is Illuminated
Sep 14
Creciente
Sep 16
Cuarto creciente
Sep 24
Luna llena
Oct 2
Cuarto menguante
Oct 8
Nueva

Hourly Weather History & Observations

Hora (MDT) Temp. Índice de calor Punto de rocío Humedad Presión Visibilidad Wind Dir Velocidad del viento Velocidad de ráfagas Precip Eventos Condiciones
12:40 AM 84.2 ° F 94.1 ° F 77.0 ° F 79% 29.76 pul 10.0 mi SO 4.6 mph - N/A   Despejado
1:40 AM 84.2 ° F 94.1 ° F 77.0 ° F 79% 29.75 pul 10.0 mi Sin viento Sin viento - N/A   Despejado
2:42 AM 84.2 ° F 94.1 ° F 77.0 ° F 79% 29.75 pul 10.0 mi Sin viento Sin viento - N/A   Despejado
3:41 AM 84.2 ° F 96.1 ° F 78.8 ° F 84% 29.77 pul 10.0 mi Sin viento Sin viento - N/A   Despejado
4:41 AM 86.0 ° F 96.9 ° F 77.0 ° F 74% 29.77 pul 10.0 mi Sin viento Sin viento - N/A   Despejado
5:41 AM 82.4 ° F 90.9 ° F 77.0 ° F 84% 29.74 pul 10.0 mi Sin viento Sin viento - N/A   Despejado
6:40 AM 80.6 ° F 87.1 ° F 77.0 ° F 89% 29.78 pul 10.0 mi Sin viento Sin viento - N/A   Parcialmente nublado
7:40 AM 84.2 ° F 94.1 ° F 77.0 ° F 79% 29.80 pul 10.0 mi Este 4.6 mph - N/A   Parcialmente nublado
8:40 AM 87.8 ° F 99.7 ° F 77.0 ° F 70% 29.78 pul 10.0 mi Este 6.9 mph - N/A   Parcialmente nublado
8:50 AM 84 ° F - 73 ° F 63% 29.77 pul 7 mi NNE 2.2 mph - -  
9:40 AM 91.4 ° F 102.5 ° F 75.2 ° F 59% 29.81 pul 10.0 mi Este 8.1 mph - N/A   Despejado
10:40 AM 93.2 ° F 102.4 ° F 73.4 ° F 52% 29.80 pul 10.0 mi ENE 6.9 mph - N/A   Despejado
11:40 AM 98.6 ° F 107.7 ° F 71.6 ° F 42% 29.77 pul 10.0 mi Este 8.1 mph - N/A   Despejado
11:45 AM 98 ° F - 75 ° F 38% 29.75 pul 7 mi NNE 4.5 mph - -  
12:40 PM 100.4 ° F 109.3 ° F 71.6 ° F 39% 29.77 pul 10.0 mi SSE 8.1 mph - N/A   Despejado
1:43 PM 104.0 ° F 112.2 ° F 69.8 ° F 33% 29.74 pul 10.0 mi SE 4.6 mph - N/A   Despejado
2:40 PM 105.8 ° F 114.2 ° F 69.8 ° F 31% 29.68 pul 10.0 mi Oeste 4.6 mph - N/A   Despejado
3:40 PM 107.6 ° F 115.0 ° F 68.0 ° F 28% 29.70 pul 10.0 mi Sin viento Sin viento - N/A   Parcialmente nublado
4:45 PM 107.6 ° F 115.0 ° F 68.0 ° F 28% 29.68 pul 10.0 mi SSO 9.2 mph - N/A   Parcialmente nublado
5:40 PM 108 ° F - 66 ° F 18% 29.61 pul 7 mi OSO 6.7 mph - -   Nubes dispersas
5:40 PM 105.8 ° F 111.5 ° F 66.2 ° F 28% 29.65 pul 10.0 mi SO 11.5 mph - N/A   Parcialmente nublado
6:40 PM 102.2 ° F 111.7 ° F 71.6 ° F 37% 29.69 pul 10.0 mi SO 17.3 mph - N/A   Parcialmente nublado
7:40 PM 96.8 ° F 105.1 ° F 71.6 ° F 44% 29.70 pul 10.0 mi SO 12.7 mph - N/A   Despejado
8:44 PM 93.2 ° F 96.2 ° F 66.2 ° F 41% 29.70 pul 10.0 mi OSO 5.8 mph - N/A   Despejado
9:40 PM 91.4 ° F 92.1 ° F 62.6 ° F 38% 29.75 pul 10.0 mi Oeste 3.5 mph - N/A   Despejado
10:46 PM 89.6 ° F 90.1 ° F 62.6 ° F 40% 29.77 pul 10.0 mi SO 3.5 mph - N/A   Despejado
11:41 PM 89.6 ° F 91.1 ° F 64.4 ° F 43% 29.76 pul 10.0 mi SSO 6.9 mph - N/A   Despejado